Zurück zum Katalog

CZ-6A DEB

AktivPO
NORAD 55003·DEBRIS·🇨🇳 China

Gestartet Nov 11, 2022 von Taiyuan Satellite Launch Center

Loading…

Nächste Überflüge (nächste 24 Stunden)

TLE

AktuellSource: Space-Track

Epoche: Sep 14, 2026, 17:18 UTC

1 55003U 22151UT  26257.72132439  .00117701  00000-0  43846-2 0  9991
2 55003  98.6127 358.3452 0027461 263.3715  96.4394 15.26611666204152

Verfolge CZ-6A DEB in Echtzeit mit AllMySat

Download on the App Store